Location: *
(43.4667°N, 11.6833°E)
Time: 16:12:38
(UTC+00:00)

Cosmos 1408 - Pass Details

Date: 19 July 2019
Orbit: 470 x 497 km, 82.6° (Epoch: 23 August)

Event Time Altitude Azimuth Distance (km) Brightness Sun altitude
Exits shadow 20:46:23 17° 203° (SSW) 1,325 4.5 -16.8°
Maximum altitude 20:49:07 58° 280° (W) 584 3.1 -17.1°
Drops below altitude 10° 20:52:49 10° 1° (N) 1,709 6.1 -17.5°
Sets 20:54:58 0° 5° (N) 2,596 7.1 -17.7°
